                   Node   356.28313     +0.76101199     -0.63774159

e   1.0            Incl.  149.67362     -0.11228567     +0.05108580

From 55 observations 2003 Sept. 2-8.



NAKANO

         **** Don't distribute anyone except personal use only ****

                (C) Copyright 2003 OAA/ComputingSection

write mail from CFAD0::NAKANO on 2003-09-14 04:53:52(JST).



◎C/2003 R1の軌道と予報位置です



 久万の中村彰正氏の9月8日の観測によると,CCD全光度は19.2等でした.



    C/2003 R1 (LINEAR)                                                    

T 2003 July 10.03714 TT                                 Nakano

q   2.1543661            (2000.0)            P               Q

                   Peri.  306.52942     +0.63894654     +0.76855443

                   Node   356.28313     +0.76101199     -0.63774159

e   1.0            Incl.  149.67362     -0.11228567     +0.05108580

From 55 observations 2003 Sept. 2-8.

Date/        TT  R.A.(2000) Decl.     Delta   r     Daily motion  Mag.  Moon Age

              h    h  m       。  ,                      ,  / PA 。  m1      。

2003 Sept.10 18  02 59.54  -03 19.1   1.555  2.275    56.5 / 256  18.1   54 1.00

          11 18  02 55.89  -03 33.2   1.540  2.279    58.0 / 256  18.1   41  .99

          12 18  02 52.13  -03 47.5   1.526  2.283    59.6 / 256  18.1   30  .96

          13 18  02 48.27  -04 02.1   1.512  2.287    61.1 / 256  18.1   21  .91

          14 18  02 44.31  -04 16.9   1.499  2.290    62.6 / 256  18.1   18  .85

          15 18  02 40.24  -04 31.8   1.487  2.294    64.1 / 256  18.1   23  .77

          16 18  02 36.08  -04 46.9   1.475  2.298    65.5 / 257  18.1   32  .69

          17 18  02 31.81  -05 02.1   1.464  2.302    66.9 / 257  18.0   44  .60

          18 18  02 27.45  -05 17.5   1.453  2.306    68.3 / 257  18.0   56  .50

          19 18  02 23.00  -05 32.9   1.444  2.311    69.6 / 257  18.0   68  .41

          20 18  02 18.45  -05 48.4   1.435  2.315    70.8 / 257  18.0   81  .31

          21 18  02 13.82  -06 03.8   1.426  2.319    71.9 / 258  18.0   94  .22

          22 18  02 09.11  -06 19.3   1.419  2.323    73.0 / 258  18.0  108  .14

          23 18  02 04.32  -06 34.6   1.412  2.328    73.9 / 258  18.0  122  .08

          24 18  01 59.47  -06 49.9   1.406  2.332    74.8 / 258  18.0  136  .03

          25 18  01 54.55  -07 05.0   1.402  2.336    75.6 / 259  18.0  150  .00

          26 18  01 49.57  -07 20.0   1.398  2.341    76.2 / 259  18.0  162  .01

          27 18  01 44.54  -07 34.7   1.394  2.345    76.7 / 259  18.0  164  .04

          28 18  01 39.47  -07 49.2   1.392  2.350    77.1 / 259  18.0  154  .10

          29 18  01 34.37  -08 03.3   1.391  2.355    77.4 / 260  18.0  140  .18

          30 18  01 29.24  -08 17.1   1.391  2.359    77.5 / 260  18.0  125  .27

     Oct.  1 18  01 24.10  -08 30.6   1.391  2.364    77.6 / 260  18.0  110  .38

           2 18  01 18.94  -08 43.6   1.393  2.369    77.4 / 261  18.0   95  .49

           3 18  01 13.79  -08 56.2   1.395  2.373    77.2 / 261  18.0   80  .60

           4 18  01 08.64  -09 08.3   1.398  2.378    76.8 / 261  18.1   66  .71

           5 18  01 03.51  -09 19.9   1.403  2.383    76.3 / 262  18.1   52  .80

           6 18  00 58.41  -09 31.0   1.408  2.388    75.7 / 262  18.1   38  .88

           7 18  00 53.34  -09 41.6   1.414  2.393    75.0 / 262  18.1   25  .93

           8 18  00 48.31  -09 51.6   1.421  2.398    74.2 / 263  18.1   14  .98

           9 18  00 43.33  -10 01.1   1.429  2.403    73.2 / 263  18.1   11 1.00

          10 18  00 38.41  -10 10.0   1.438  2.408    72.2 / 263  18.2   20 1.00

NAKANO

         **** Don't distribute anyone except personal use only ****

                (C) Copyright 2003 OAA/ComputingSection

write mail from CFAD0::NAKANO on 2003-09-10 04:00:12(JST).

 

Do you want to read another message(y/nCR) ? n[MURAMATU]lo 

  MURAMATU logged out 2003-09-12 01:13:23 (JST)

 



戻ります。